Starlink 32259

operational
NORAD ID: 60937 Int'l Des: 2024-155 Owner: SPXS Country: US Constellation: starlink
LEOCIRCULAR

关于 Starlink 32259

正在加载描述...

实时位置

正在加载3D地球...

即将过境

高度历史

Altitude vs Time

uPlot chart will show altitude changes over time

两行轨道根数

1 60937U 24155P 25307.53496394 .00001505 00000-0 62967-4 0 9997
2 60937 53.1621 355.8129 0001317 83.6991 276.4160 15.30175511 67026
Epoch: Nov 3, 2025 • Age: 20 hours

当前状态

高度 475.2 km
速度 7.63 km/s
星下点 10.53°N, 176.83°E
发射日期 Aug 31, 2024
运行时间 1.1 years
类型 internet

技术详情

分类 Payload
质量 730.00 kg
干质量 700.00 kg
总质量 730.00 kg
长度 0.30 m
直径 4.10 m
跨度 29.00 m
形状 Box + pan
制造商 SPXS
平台类型 Starlink V2M
阶段状态 In Orbit
所有者/国家 SPXS/US

大型星座

Loading constellations...